FW7729 Weather Reports


Display with metric or nautical units.
time (UTC)temp
F
wind
direction
speed
MPH
gust
MPH
rain 1hr
in
rain 24hr
in
rain mn
in
humidity
%
barometer
mb
20260903175311 84 228 1.0 0.0 0.00 0.05 0.00 87 1015.2
20260903174737 83 227 0.0 0.0 0.00 0.05 0.00 87 1014.9
20260903174203 84 227 1.0 0.0 0.00 0.05 0.00 87 1015.0
20260903173629 84 227 0.0 0.0 0.00 0.05 0.00 87 1015.2
20260903173055 83 228 0.0 0.0 0.00 0.05 0.00 87 1015.6
20260903171951 83 228 0.0 0.0 0.00 0.05 0.00 89 1016.0
20260903171417 83 228 0.0 0.0 0.00 0.05 0.00 88 1016.1
20260903170313 83 228 0.0 0.0 0.00 0.05 0.00 90 1016.3
20260903165738 82 227 0.0 0.0 0.00 0.05 0.00 90 1016.2
20260903165204 81 228 0.0 0.0 0.00 0.05 0.00 93 1016.3
20260903164630 81 227 0.0 0.0 0.00 0.05 0.00 92 1016.5
20260903164056 81 125 0.0 0.0 0.00 0.05 0.00 92 1016.7
20260903163522 80 90 0.0 0.0 0.00 0.05 0.00 95 1016.6
20260903162418 80 90 0.0 0.0 0.00 0.05 0.00 97 1016.9
20260903161844 80 91 0.0 0.0 0.00 0.05 0.00 97 1017.0
20260903160210 79 212 0.0 0.0 0.00 0.05 0.00 99 1017.3
20260903155636 78 219 1.0 0.0 0.00 0.05 0.00 10 1017.3
20260903155102 78 248 0.0 0.0 0.00 0.05 0.00 10 1017.7
20260903153958 78 248 0.0 0.0 0.00 0.05 0.00 10 1018.0
20260903153424 78 248 0.0 0.0 0.00 0.05 0.00 10 1017.6
20260903152850 78 248 0.0 0.0 0.00 0.05 0.00 10 1016.8
20260903152315 78 248 1.0 0.0 0.00 0.05 0.00 10 1017.0
20260903151211 78 248 0.0 0.0 0.00 0.05 0.00 10 1016.9
20260903150107 77 247 0.0 0.0 0.00 0.05 0.00 10 1016.9
20260903145533 77 247 0.0 0.0 0.00 0.05 0.00 10 1016.8
20260903144959 77 247 1.0 0.0 0.00 0.05 0.00 10 1016.7
20260903144425 77 249 1.0 0.0 0.00 0.05 0.00 10 1016.8
20260903143851 77 242 0.0 0.0 0.00 0.05 0.00 10 1016.7
20260903143317 76 249 0.0 0.0 0.00 0.05 0.00 10 1016.7
20260903142743 76 249 1.0 0.0 0.00 0.05 0.00 10 1016.7
20260903142209 76 249 0.0 0.0 0.00 0.05 0.00 10 1016.6
20260903141635 75 162 0.0 0.0 0.00 0.05 0.00 10 1016.6
20260903141101 75 162 1.0 0.0 0.00 0.05 0.00 10 1016.4
20260903135957 74 170 0.0 0.0 0.00 0.05 0.00 10 1016.4
20260903135423 74 170 0.0 0.0 0.00 0.05 0.00 10 1016.4
20260903134319 73 170 1.0 0.0 0.00 0.05 0.00 10 1016.1
20260903132645 73 164 0.0 0.0 0.00 0.05 0.00 10 1016.5
20260903132110 73 164 1.0 0.0 0.00 0.05 0.00 10 1016.6
20260903131536 73 164 0.0 0.0 0.00 0.05 0.00 10 1016.8
20260903125902 73 274 0.0 0.0 0.00 0.05 0.00 10 1017.4
20260903125328 73 263 0.0 0.0 0.00 0.05 0.00 10 1017.6
20260903124754 72 264 0.0 0.0 0.00 0.05 0.00 10 1017.6
20260903123120 72 270 0.0 0.0 0.00 0.05 0.00 10 1017.8
20260903122016 72 129 0.0 0.0 0.00 0.05 0.00 10 1017.7
20260903120342 72 120 0.0 0.0 0.00 0.05 0.00 10 1018.0
20260903115807 72 297 0.0 0.0 0.00 0.05 0.00 10 1018.0
20260903115233 72 216 1.0 0.0 0.00 0.05 0.00 10 1017.9
20260903114129 72 41 0.0 0.0 0.00 0.05 0.00 10 1017.9
20260903113555 72 52 0.0 0.0 0.00 0.05 0.00 10 1017.9
20260903113021 72 52 0.0 0.0 0.00 0.05 0.00 10 1017.8
20260903111917 72 147 0.0 0.0 0.00 0.05 0.00 10 1017.7
20260903111343 71 147 0.0 0.0 0.00 0.05 0.00 10 1017.4
20260903110239 71 147 0.0 0.0 0.00 0.05 0.00 10 1016.8
20260903105705 71 147 0.0 0.0 0.00 0.05 0.00 10 1016.9
20260903105130 71 146 0.0 0.0 0.00 0.05 0.00 10 1016.7
20260903104556 71 147 0.0 0.0 0.00 0.05 0.00 10 1016.6
20260903101822 71 147 0.0 0.0 0.00 0.05 0.00 10 1015.8
20260903101248 71 147 0.0 0.0 0.00 0.05 0.00 10 1015.8
20260903100714 71 147 0.0 0.0 0.00 0.05 0.00 10 1015.8
20260903095610 71 147 0.0 0.0 0.00 0.05 0.00 10 1015.7
20260903094506 71 147 0.0 0.0 0.00 0.05 0.00 10 1015.8
20260903093932 71 147 0.0 0.0 0.00 0.05 0.00 10 1015.8
20260903092828 71 147 0.0 0.0 0.00 0.05 0.00 10 1016.0
20260903092254 71 147 0.0 0.0 0.00 0.05 0.00 10 1016.0
20260903091720 71 147 0.0 0.0 0.00 0.05 0.00 10 1016.0
20260903090616 71 147 0.0 0.0 0.00 0.05 0.00 10 1015.9
20260903090042 71 147 0.0 0.0 0.00 0.05 0.00 10 1015.9
20260903085507 71 147 0.0 0.0 0.00 0.05 0.00 10 1015.7
20260903084403 71 147 0.0 0.0 0.00 0.05 0.00 10 1015.6
20260903083830 71 147 0.0 0.0 0.00 0.05 0.00 10 1015.7
20260903083255 71 147 0.0 0.0 0.00 0.05 0.00 10 1015.4
20260903082721 71 147 0.0 0.0 0.00 0.05 0.00 10 1015.5
20260903081617 71 147 0.0 0.0 0.00 0.05 0.00 10 1015.8
20260903080513 71 147 0.0 0.0 0.00 0.05 0.00 10 1015.7
20260903075939 71 147 0.0 0.0 0.00 0.05 0.00 10 1015.7
20260903075405 71 147 0.0 0.0 0.00 0.05 0.00 10 1015.7
20260903074301 71 147 0.0 0.0 0.00 0.05 0.00 10 1015.8
20260903073727 71 147 0.0 0.0 0.00 0.05 0.00 10 1015.8
20260903073153 71 147 1.0 0.0 0.00 0.05 0.00 10 1015.8
20260903072619 71 147 0.0 0.0 0.00 0.05 0.00 10 1015.7
20260903070945 71 147 0.0 0.0 0.00 0.05 0.00 10 1015.5
20260903065311 71 147 1.0 0.0 0.00 0.05 0.00 10 1015.5
20260903064737 71 143 0.0 0.0 0.00 0.05 0.00 10 1015.6
20260903063633 71 143 0.0 0.0 0.00 0.05 0.00 10 1015.7
20260903063059 71 143 0.0 0.0 0.00 0.05 0.00 10 1015.7
20260903061955 71 143 0.0 0.0 0.00 0.05 0.00 10 1015.5
20260903060851 72 143 0.0 0.0 0.00 0.05 0.00 10 1015.8
20260903060316 72 143 1.0 0.0 0.00 0.05 0.00 10 1015.7
20260903054642 72 110 0.0 0.0 0.00 0.05 0.00 10 1015.9
20260903054108 72 109 0.0 0.0 0.00 0.05 0.00 10 1016.0
20260903053534 72 104 1.0 0.0 0.00 0.05 0.00 10 1016.1
20260903053000 72 104 0.0 0.0 0.00 0.05 0.00 10 1016.0
20260903051856 72 104 1.0 0.0 0.00 0.05 0.00 10 1016.0
20260903051322 72 104 0.0 0.0 0.00 0.05 0.00 10 1016.2
20260903050748 72 104 0.0 0.0 0.00 0.05 0.00 10 1016.1
20260903050214 72 103 0.0 0.0 0.00 0.05 0.00 10 1016.2
20260903045640 72 104 0.0 0.0 0.00 0.05 0.00 10 1016.4
20260903045106 72 104 0.0 0.0 0.00 0.05 0.00 10 1016.5
20260903044532 72 104 0.0 0.0 0.00 0.05 0.00 10 1016.3
20260903043427 72 104 0.0 0.0 0.00 0.05 0.00 10 1016.5
20260903042853 72 104 0.0 0.0 0.00 0.05 0.05 10 1016.5
20260903042318 72 104 0.0 0.0 0.00 0.05 0.05 10 1016.5
20260903041744 72 104 0.0 0.0 0.00 0.05 0.05 10 1016.6
20260903041210 72 104 0.0 0.0 0.00 0.05 0.05 10 1016.6
20260903040636 72 104 0.0 0.0 0.00 0.05 0.05 10 1016.8
20260903035528 72 104 0.0 0.0 0.00 0.05 0.05 10 1016.6
20260903034423 72 104 0.0 0.0 0.00 0.05 0.05 10 1016.5
20260903033849 72 104 0.0 0.0 0.00 0.05 0.05 10 1016.5
20260903033315 72 104 0.0 0.0 0.00 0.05 0.05 10 1016.5
20260903032211 72 104 0.0 0.0 0.00 0.05 0.05 10 1016.8
20260903031637 72 104 0.0 0.0 0.00 0.05 0.05 10 1016.8
20260903031103 72 104 0.0 0.0 0.00 0.05 0.05 10 1016.7
20260903030529 72 104 0.0 0.0 0.00 0.05 0.05 10 1016.6
20260903025955 72 104 0.0 0.0 0.00 0.05 0.05 10 1016.6
20260903025421 72 104 0.0 0.0 0.00 0.05 0.05 10 1016.6
20260903024847 72 104 0.0 0.0 0.00 0.05 0.05 10 1016.6
20260903024313 72 104 0.0 0.0 0.00 0.05 0.05 10 1016.6
20260903022639 72 104 0.0 0.0 0.00 0.05 0.05 10 1016.3
20260903022104 72 104 0.0 0.0 0.00 0.05 0.05 10 1016.2
20260903021531 72 104 0.0 0.0 0.00 0.05 0.05 10 1016.2
20260903020956 72 104 0.0 0.0 0.00 0.05 0.05 10 1016.1
20260903015852 72 104 0.0 0.0 0.00 0.05 0.05 10 1016.0
20260903015319 72 104 0.0 0.0 0.00 0.05 0.05 10 1015.9
20260903014744 72 104 0.0 0.0 0.00 0.05 0.05 10 1015.9
20260903014210 72 104 0.0 0.0 0.00 0.05 0.05 10 1016.0
20260903013636 72 104 0.0 0.0 0.00 0.05 0.05 10 1016.1
20260903013102 72 104 0.0 0.0 0.00 0.05 0.05 10 1016.2
20260903012528 72 103 0.0 0.0 0.00 0.05 0.05 10 1016.3
20260903011424 72 104 0.0 0.0 0.00 0.05 0.05 10 1016.4
20260903010320 72 104 0.0 0.0 0.00 0.05 0.05 10 1016.5
20260903005746 72 104 0.0 0.0 0.00 0.05 0.05 10 1016.5
20260903005212 73 104 0.0 0.0 0.00 0.05 0.05 10 1016.4
20260903004638 73 104 0.0 0.0 0.00 0.05 0.05 10 1016.5
20260903003534 73 104 0.0 0.0 0.00 0.05 0.05 10 1016.4
20260903003000 73 104 0.0 0.0 0.00 0.05 0.05 10 1016.1
20260903002426 73 104 0.0 0.0 0.00 0.05 0.05 10 1016.3
20260903001322 73 104 0.0 0.0 0.00 0.05 0.05 10 1016.3
20260903000748 73 104 0.0 0.0 0.00 0.05 0.05 10 1016.5
20260902235643 73 104 0.0 0.0 0.00 0.05 0.05 10 1016.5
20260902235109 73 104 0.0 0.0 0.00 0.05 0.05 10 1016.5
20260902234535 74 104 0.0 0.0 0.00 0.05 0.05 10 1016.3
20260902234001 74 104 0.0 0.0 0.00 0.05 0.05 10 1016.4
20260902231756 74 104 0.0 0.0 0.00 0.05 0.05 10 1016.4
20260902231222 74 104 0.0 0.0 0.00 0.05 0.05 10 1016.6
20260902230118 74 104 0.0 0.0 0.00 0.05 0.05 10 1016.6
20260902225544 74 104 0.0 0.0 0.00 0.05 0.05 10 1016.5
20260902224440 74 104 0.0 0.0 0.00 0.05 0.05 10 1016.6
20260902223906 74 104 0.0 0.0 0.00 0.05 0.05 10 1016.8
20260902223332 74 104 0.0 0.0 0.00 0.05 0.05 10 1016.7
20260902222228 74 104 0.0 0.0 0.00 0.05 0.05 10 1016.7
20260902220554 74 104 0.0 0.0 0.00 0.05 0.05 10 1016.6
20260902215450 74 104 0.0 0.0 0.00 0.05 0.05 10 1016.8
20260902214916 74 104 0.0 0.0 0.00 0.05 0.05 10 1016.8
20260902214342 74 104 0.0 0.0 0.00 0.05 0.05 10 1017.1
20260902213808 74 104 0.0 0.0 0.00 0.05 0.05 10 1017.3
20260902213234 74 104 0.0 0.0 0.00 0.05 0.05 10 1017.2
20260902212130 74 104 0.0 0.0 0.00 0.05 0.05 10 1017.3
20260902211026 73 104 0.0 0.0 0.00 0.05 0.05 10 1017.0
20260902210452 73 104 0.0 0.0 0.00 0.05 0.05 10 1016.9
20260902205918 73 104 0.0 0.0 0.00 0.05 0.05 10 1016.8
20260902204814 73 104 0.0 0.0 0.00 0.05 0.05 10 1016.8
20260902204239 73 104 0.0 0.0 0.00 0.05 0.05 10 1016.9
20260902203706 73 104 0.0 0.0 0.00 0.05 0.05 10 1016.9
20260902203131 73 104 0.0 0.0 0.00 0.05 0.05 10 1016.9
20260902201457 73 104 0.0 0.0 0.00 0.05 0.05 10 1017.1
20260902200923 73 104 0.0 0.0 0.00 0.05 0.05 10 1017.1
20260902200349 73 104 0.0 0.0 0.00 0.05 0.05 10 1017.2
20260902193045 73 97 0.0 0.0 0.00 0.05 0.05 10 1016.9
20260902191941 73 97 0.0 0.0 0.00 0.05 0.05 10 1017.1
20260902191407 73 97 0.0 0.0 0.02 0.05 0.05 10 1017.0
20260902190303 73 97 0.0 0.0 0.05 0.05 0.05 10 1017.2
20260902185729 74 140 1.0 0.0 0.05 0.05 0.05 10 1016.9
20260902185155 74 68 0.0 0.0 0.05 0.05 0.05 10 1017.3
20260902182951 75 18 1.0 0.0 0.05 0.05 0.05 10 1017.7
20260902180747 84 131 3.0 1.0 0.00 0.00 0.00 79 1018.3
20260902180212 87 287 4.0 1.0 0.00 0.00 0.00 77 1018.1